TimeCST,TemperatureF,Dew PointF,Humidity,Sea Level PressureIn,VisibilityMPH,Wind Direction,Wind SpeedMPH,Gust SpeedMPH,PrecipitationIn,Events,Conditions,WindDirDegrees,DateUTC
12:52 AM,39.0,34.0,82,30.32,10.0,SSW,10.4,-,N/A,,Overcast,200,2013-01-05 06:52:00
1:52 AM,39.0,34.0,82,30.31,10.0,SSW,9.2,-,N/A,,Overcast,200,2013-01-05 07:52:00
2:52 AM,36.0,33.1,89,30.30,10.0,South,8.1,-,N/A,,Mostly Cloudy,190,2013-01-05 08:52:00
3:52 AM,32.0,30.9,96,30.29,10.0,SSW,6.9,-,N/A,,Clear,200,2013-01-05 09:52:00
4:52 AM,33.8,32.0,93,30.26,10.0,South,8.1,-,N/A,,Scattered Clouds,190,2013-01-05 10:52:00
5:52 AM,36.0,34.0,93,30.27,10.0,SSW,12.7,-,N/A,,Overcast,210,2013-01-05 11:52:00
6:52 AM,35.1,33.1,92,30.27,10.0,SSW,10.4,-,N/A,,Overcast,200,2013-01-05 12:52:00
7:22 AM,33.8,30.2,87,30.27,10.0,South,6.9,-,N/A,,Scattered Clouds,180,2013-01-05 13:22:00
7:52 AM,30.9,30.0,96,30.29,7.0,South,5.8,-,N/A,,Clear,180,2013-01-05 13:52:00
8:52 AM,37.0,34.0,89,30.29,9.0,South,9.2,-,N/A,,Clear,190,2013-01-05 14:52:00
9:52 AM,41.0,33.8,76,30.27,10.0,SSW,17.3,-,N/A,,Clear,210,2013-01-05 15:52:00
10:52 AM,45.0,33.1,63,30.27,10.0,SW,17.3,-,N/A,,Clear,230,2013-01-05 16:52:00
11:52 AM,46.4,30.2,53,30.23,10.0,SW,16.1,24.2,N/A,,Clear,230,2013-01-05 17:52:00
12:52 PM,50.0,28.9,44,30.20,10.0,WSW,16.1,24.2,N/A,,Clear,240,2013-01-05 18:52:00
1:52 PM,51.1,28.9,43,30.18,10.0,WSW,12.7,21.9,N/A,,Clear,240,2013-01-05 19:52:00
2:52 PM,53.1,28.0,38,30.18,10.0,WSW,11.5,-,N/A,,Clear,250,2013-01-05 20:52:00
3:52 PM,53.1,27.0,37,30.18,10.0,Variable,5.8,-,N/A,,Clear,0,2013-01-05 21:52:00
4:52 PM,52.0,25.0,35,30.20,10.0,WSW,8.1,-,N/A,,Clear,250,2013-01-05 22:52:00
5:52 PM,46.0,26.1,46,30.22,10.0,WNW,5.8,-,N/A,,Clear,300,2013-01-05 23:52:00
6:52 PM,43.0,25.0,49,30.25,10.0,NW,6.9,-,N/A,,Clear,310,2013-01-06 00:52:00
7:52 PM,44.1,24.1,45,30.27,10.0,WNW,3.5,-,N/A,,Clear,290,2013-01-06 01:52:00
8:52 PM,42.1,24.1,49,30.28,10.0,WNW,8.1,-,N/A,,Clear,300,2013-01-06 02:52:00
9:52 PM,35.1,24.1,64,30.30,10.0,NW,10.4,-,N/A,,Clear,320,2013-01-06 03:52:00
10:52 PM,35.1,23.0,61,30.32,10.0,NW,9.2,-,N/A,,Clear,320,2013-01-06 04:52:00
11:52 PM,33.1,24.1,70,30.34,10.0,NNW,9.2,-,N/A,,Clear,340,2013-01-06 05:52:00